Regional Weather Roundup
Issued by NWS

Home | Current Version | Previous Version | Graphics & Text | Print | Product List | Glossary On
Versions: 1 2 3 4 5 6 7 8 9 10 11 12 13 14 15 16 17 18 19 20 21 22 23 24 25 26 27 28 29 30 31 32 33 34 35 36 37 38 39 40 41 42 43 44 45 46 47 48 49 50
257
ASUS43 KBIS 170502
RWRND

NORTH DAKOTA REGIONAL WEATHER ROUNDUP
NATIONAL WEATHER SERVICE BISMARCK ND
1200 AM CDT THU AUG 17 2017

NOTE: "FAIR" INDICATES FEW OR NO CLOUDS BELOW 12,000 FEET WITH NO
SIGNIFICANT WEATHER AND/OR OBSTRUCTIONS TO VISIBILITY.


NDZ001>003-009>011-017-170600-
NORTHWEST NORTH DAKOTA

CITY           SKY/WX    TMP DP  RH WIND       PRES   REMARKS
WILLISTON      CLOUDY    73  56  54 SE7       29.86F
MINOT          CLEAR     62  54  74 S3        29.87F
MINOT AFB      CLEAR     57  52  85 CALM      29.86S
$$

NDZ018>021-031>035-040>046-170600-
SOUTHWEST NORTH DAKOTA

CITY           SKY/WX    TMP DP  RH WIND       PRES   REMARKS
BISMARCK       CLEAR     61  56  83 CALM      29.92R
DICKINSON      CLEAR     61  54  77 SE10      29.91F
GARRISON         N/A     59  54  83 CALM      29.89F
HETTINGER ARPT CLEAR     61  50  67 SE5       29.96S
$$

NDZ004>008-012>016-024-026-027-054-170600-
NORTHEAST NORTH DAKOTA

CITY           SKY/WX    TMP DP  RH WIND       PRES   REMARKS
GRAND FORKS    PTCLDY    62  62 100 N8        29.83S
GRND FRKS AFB  PTCLDY    57  57 100 N5        29.84S FOG
DEVILS LAKE    CLEAR     60  59  96 CALM      29.88R
$$

NDZ022-023-025-028>030-036>039-047>053-170600-
SOUTHEAST NORTH DAKOTA

CITY           SKY/WX    TMP DP  RH WIND       PRES   REMARKS
FARGO          CLOUDY    65  64  97 N14       29.79F
JAMESTOWN      CLOUDY    59  57  93 CALM      29.86S
$$





USA.gov is the U.S. government's official web portal to all federal, state and local government web resources and services.